DJ2KUA-6 Weather Reports


time (UTC)temp
F
wind
direction
speed
knots
gust
knots
rain 1hr
in
rain 24hr
in
rain mn
in
humidity
%
barometer
mb
20260506222056 52 315 0.0 0.0 0.20 0.44 0.00 86 1062.0
20260506220157 53 315 0.0 0.0 0.14 0.36 0.00 86 1062.0
20260506214254 53 135 0.0 0.0 0.12 0.28 0.00 86 1062.0
20260506212355 53 135 0.0 0.0 0.12 0.24 0.00 86 1061.0
20260506210456 53 158 0.0 0.0 0.14 0.22 0.00 87 1061.0
20260506204556 53 135 0.0 0.0 0.10 0.16 0.00 87 1061.0
20260506202654 53 338 0.0 0.0 0.08 0.12 0.00 87 1061.0
20260506200754 53 292 0.0 0.0 0.04 0.08 0.00 87 1061.0
20260506194854 54 135 0.0 0.0 0.02 0.06 0.00 87 1061.0
20260506192956 54 112 0.0 0.0 0.00 0.04 0.00 86 1060.0
20260506191054 55 315 0.0 0.0 0.00 0.04 0.00 86 1060.0
20260506185154 56 135 0.0 0.0 0.00 0.10 0.00 85 1060.0
20260506181356 56 135 0.0 0.0 0.00 0.10 0.00 84 1060.0
20260506175456 57 315 0.0 0.0 0.00 0.12 0.00 83 1059.0
20260506173557 58 90 0.0 0.0 0.00 0.12 0.00 82 1059.0
20260506171653 58 112 0.0 0.0 0.02 0.12 0.00 83 1059.0
20260506165754 58 135 0.0 0.0 0.02 0.12 0.00 83 1059.0
20260506163856 58 135 0.0 0.0 0.02 0.12 0.00 83 1059.0
20260506161954 58 158 0.0 0.0 0.00 0.10 0.00 80 1059.0
20260506160056 60 135 0.0 0.0 0.00 0.10 0.00 76 1059.0
20260506154155 62 135 0.0 0.0 0.00 0.10 0.00 72 1059.0
20260506152255 64 158 0.0 0.0 0.00 0.10 0.00 68 1059.0
20260506144455 65 292 0.0 0.0 0.00 0.10 0.00 62 1058.0
20260506142554 65 292 0.0 0.0 0.00 0.10 0.00 60 1058.0
20260506140654 66 270 0.0 0.0 0.00 0.10 0.00 60 1058.0
20260506134755 67 315 0.0 0.0 0.00 0.12 0.00 58 1058.0
20260506132855 69 315 0.0 0.0 0.00 0.12 0.00 55 1058.0
20260506130956 70 292 0.0 0.0 0.00 0.12 0.00 54 1058.0
20260506125056 68 315 0.0 0.0 0.00 0.14 0.00 57 1058.0
20260506123156 68 292 0.0 0.0 0.00 0.14 0.00 58 1058.0
20260506121257 70 90 0.0 0.0 0.00 0.14 0.00 57 1058.0
20260506115354 70 315 0.0 0.0 0.00 0.14 0.00 59 1058.0
20260506113454 70 270 0.0 0.0 0.00 0.14 0.00 61 1058.0
20260506111556 67 135 0.0 0.0 0.00 0.14 0.00 63 1058.0
20260506105655 66 315 0.0 0.0 0.00 0.14 0.00 64 1059.0
20260506103755 66 202 0.0 0.0 0.00 0.14 0.00 65 1059.0
20260506101856 66 292 0.0 0.0 0.00 0.14 0.00 67 1059.0
20260506095954 65 315 0.0 0.0 0.00 0.14 0.00 67 1059.0
20260506092154 65 315 0.0 0.0 0.00 0.14 0.00 68 1059.0
20260506090256 68 135 0.0 0.0 0.02 0.14 0.00 69 1059.0
20260506084353 65 90 0.0 0.0 0.02 0.14 0.00 75 1059.0
20260506082455 62 248 0.0 0.0 0.02 0.14 0.00 77 1059.0
20260506080556 61 292 0.0 0.0 0.00 0.12 0.00 79 1059.0
20260506070857 60 315 0.0 0.0 0.00 0.12 0.00 86 1059.0
20260506061156 54 135 0.0 0.0 0.00 0.12 0.00 86 1059.0
20260506043657 50 158 0.0 0.0 0.00 0.12 0.00 87 1059.0
20260506041755 51 158 0.0 0.0 0.00 0.12 0.00 87 1059.0
20260506035854 51 158 0.0 0.0 0.00 0.12 0.00 87 1059.0
20260506033955 51 158 0.0 0.0 0.00 0.12 0.00 87 1059.0
20260506032055 52 158 0.0 0.0 0.00 0.12 0.00 87 1059.0
20260506030154 52 158 0.0 0.0 0.00 0.12 0.00 87 1059.0
20260506024255 53 158 0.0 0.0 0.00 0.12 0.00 86 1059.0
20260506022357 52 135 0.0 0.0 0.00 0.12 0.00 87 1059.0
20260506020455 52 135 0.0 0.0 0.00 0.12 0.00 87 1059.0
20260506014636 52 135 0.0 0.0 0.00 0.12 0.00 87 1059.0
20260506014556 52 135 0.0 0.0 0.00 0.12 0.00 87 1059.0
20260506012657 53 158 0.0 0.0 0.00 0.12 0.00 87 1059.0
20260506010758 53 158 0.0 0.0 0.00 0.12 0.00 87 1059.0
20260506004856 54 135 0.0 0.0 0.00 0.12 0.00 87 1059.0
20260506002956 54 135 0.0 0.0 0.00 0.12 0.00 87 1060.0
20260506001055 54 158 0.0 0.0 0.00 0.12 0.00 87 1060.0
20260505233255 54 158 0.0 0.0 0.00 0.12 0.00 87 1060.0
20260505231355 55 158 0.0 0.0 0.00 0.12 0.00 87 1060.0
20260505225457 55 158 0.0 0.0 0.00 0.12 0.00 87 1060.0
20260505223557 55 158 0.0 0.0 0.00 0.12 0.00 87 1060.0